Hourly Weather Abashevo

Today, 24 October, Saturday

Time Temperature Precipitation Wind Pressure Humidity
00:00 +8°C° 0 mm 4 mps 754 mmHg 92%
01:00 +9°C° 0.5 mm 5 mps 753 mmHg 93%
02:00 +9°C° 0.5 mm 5 mps 753 mmHg 94%
03:00 +9°C° 0.5 mm 5 mps 753 mmHg 95%
04:00 +9°C° 0.3 mm 6 mps 752 mmHg 94%
05:00 +10°C° 0.3 mm 6 mps 752 mmHg 93%
06:00 +10°C° 0.3 mm 6 mps 751 mmHg 93%
07:00 +11°C° 0.1 mm 7 mps 752 mmHg 89%
08:00 +12°C° 0.1 mm 7 mps 752 mmHg 86%
09:00 +12°C° 0.1 mm 7 mps 752 mmHg 83%
10:00 +14°C° 0.1 mm 7 mps 752 mmHg 79%
11:00 +14°C° 0.1 mm 7 mps 752 mmHg 75%
12:00 +15°C° 0.1 mm 6 mps 752 mmHg 71%
13:00 +15°C° 0 mm 6 mps 753 mmHg 69%
14:00 +14°C° 0 mm 5 mps 753 mmHg 67%
15:00 +14°C° 0 mm 5 mps 753 mmHg 65%
16:00 +13°C° 0 mm 4 mps 754 mmHg 67%
17:00 +13°C° 0 mm 3 mps 754 mmHg 70%
18:00 +12°C° 0 mm 3 mps 754 mmHg 72%
19:00 +11°C° 0 mm 3 mps 755 mmHg 73%
20:00 +12°C° 0 mm 2 mps 755 mmHg 74%
21:00 +10°C° 0 mm 2 mps 755 mmHg 75%
22:00 +10°C° 0 mm 2 mps 755 mmHg 77%
23:00 +9°C° 0 mm 2 mps 755 mmHg 79%

Tomorrow, 25 October, Sunday

Time Temperature Precipitation Wind Pressure Humidity
00:00 +9°C° 0 mm 2 mps 755 mmHg 81%
01:00 +10°C° 0 mm 1 mps 755 mmHg 81%
02:00 +9°C° 0 mm 1 mps 755 mmHg 81%
03:00 +9°C° 0 mm 1 mps 755 mmHg 82%
04:00 +9°C° 0 mm 1 mps 755 mmHg 82%
05:00 +9°C° 0 mm 1 mps 755 mmHg 82%
06:00 +9°C° 0 mm 1 mps 754 mmHg 82%
07:00 +10°C° 0.2 mm 1 mps 754 mmHg 83%
08:00 +9°C° 0.2 mm 2 mps 754 mmHg 85%
09:00 +9°C° 0.2 mm 2 mps 754 mmHg 87%
10:00 +9°C° 1.8 mm 2 mps 753 mmHg 90%
11:00 +9°C° 1.8 mm 2 mps 752 mmHg 93%
12:00 +9°C° 1.8 mm 2 mps 751 mmHg 96%
13:00 +9°C° 1.9 mm 2 mps 751 mmHg 96%
14:00 +9°C° 1.9 mm 3 mps 751 mmHg 96%
15:00 +9°C° 1.9 mm 3 mps 751 mmHg 96%
16:00 +7°C° 0.7 mm 4 mps 751 mmHg 95%
17:00 +7°C° 0.7 mm 4 mps 752 mmHg 93%
18:00 +7°C° 0.7 mm 5 mps 752 mmHg 91%
19:00 +7°C° 0 mm 5 mps 753 mmHg 89%
20:00 +7°C° 0 mm 5 mps 754 mmHg 87%
21:00 +7°C° 0 mm 5 mps 755 mmHg 86%
22:00 +5°C° 0 mm 6 mps 755 mmHg 83%
23:00 +4°C° 0 mm 6 mps 756 mmHg 80%

Day after tomorrow, 26 October, Monday

Time Temperature Precipitation Wind Pressure Humidity
00:00 +4°C° 0 mm 7 mps 756 mmHg 77%
01:00 +3°C° 0 mm 6 mps 757 mmHg 78%
02:00 +3°C° 0 mm 5 mps 758 mmHg 79%
03:00 +3°C° 0 mm 4 mps 758 mmHg 80%
04:00 +3°C° 0 mm 4 mps 759 mmHg 81%
05:00 +3°C° 0 mm 4 mps 759 mmHg 82%
06:00 +3°C° 0 mm 4 mps 760 mmHg 84%
07:00 +3°C° 0 mm 4 mps 760 mmHg 79%
08:00 +2°C° 0 mm 5 mps 761 mmHg 74%
09:00 +3°C° 0 mm 5 mps 761 mmHg 69%
10:00 +3°C° 0 mm 5 mps 761 mmHg 66%
11:00 +5°C° 0 mm 5 mps 761 mmHg 63%
12:00 +6°C° 0 mm 5 mps 761 mmHg 60%
13:00 +6°C° 0 mm 5 mps 761 mmHg 62%
14:00 +7°C° 0 mm 6 mps 761 mmHg 63%
15:00 +7°C° 0 mm 6 mps 762 mmHg 64%
16:00 +5°C° 0 mm 6 mps 762 mmHg 64%
17:00 +5°C° 0 mm 6 mps 762 mmHg 65%
18:00 +4°C° 0 mm 6 mps 763 mmHg 65%
19:00 +3°C° 0 mm 6 mps 763 mmHg 65%
20:00 +2°C° 0 mm 6 mps 764 mmHg 66%
21:00 +2°C° 0 mm 5 mps 764 mmHg 66%
22:00 +1°C° 0 mm 4 mps 765 mmHg 69%
23:00 0°C° 0 mm 4 mps 765 mmHg 73%

, 27 October, Tuesday

Time Temperature Precipitation Wind Pressure Humidity
00:00 0°C° 0 mm 3 mps 766 mmHg 76%
01:00 0°C° 0 mm 3 mps 766 mmHg 78%
02:00 -1°C° 0 mm 3 mps 767 mmHg 80%
03:00 -1°C° 0 mm 3 mps 767 mmHg 81%
04:00 -1°C° 0 mm 3 mps 768 mmHg 83%
05:00 -2°C° 0 mm 3 mps 768 mmHg 84%
06:00 -2°C° 0 mm 3 mps 768 mmHg 85%
07:00 -1°C° 0 mm 3 mps 769 mmHg 80%
08:00 0°C° 0 mm 3 mps 769 mmHg 75%
09:00 +1°C° 0 mm 3 mps 769 mmHg 69%
10:00 +1°C° 0 mm 3 mps 770 mmHg 65%
11:00 +2°C° 0 mm 3 mps 770 mmHg 60%
12:00 +3°C° 0 mm 3 mps 770 mmHg 55%
13:00 +3°C° 0 mm 3 mps 770 mmHg 54%
14:00 +4°C° 0 mm 3 mps 770 mmHg 54%
15:00 +4°C° 0 mm 3 mps 770 mmHg 53%
16:00 +4°C° 0 mm 2 mps 770 mmHg 58%
17:00 +3°C° 0 mm 2 mps 771 mmHg 63%
18:00 +1°C° 0 mm 2 mps 771 mmHg 68%
19:00 +1°C° 0 mm 2 mps 771 mmHg 70%
20:00 +1°C° 0 mm 2 mps 771 mmHg 72%
21:00 -1°C° 0 mm 2 mps 772 mmHg 75%
22:00 +1°C° 0 mm 1 mps 772 mmHg 76%
23:00 +1°C° 0 mm 1 mps 772 mmHg 77%

27 October, Tuesday

Time Temperature Precipitation Wind Pressure Humidity
00:00 0°C° 0 mm 3 mps 766 mmHg 76%
01:00 0°C° 0 mm 3 mps 766 mmHg 78%
02:00 -1°C° 0 mm 3 mps 767 mmHg 80%
03:00 -1°C° 0 mm 3 mps 767 mmHg 81%
04:00 -1°C° 0 mm 3 mps 768 mmHg 83%
05:00 -2°C° 0 mm 3 mps 768 mmHg 84%
06:00 -2°C° 0 mm 3 mps 768 mmHg 85%
07:00 -1°C° 0 mm 3 mps 769 mmHg 80%
08:00 0°C° 0 mm 3 mps 769 mmHg 75%
09:00 +1°C° 0 mm 3 mps 769 mmHg 69%
10:00 +1°C° 0 mm 3 mps 770 mmHg 65%
11:00 +2°C° 0 mm 3 mps 770 mmHg 60%
12:00 +3°C° 0 mm 3 mps 770 mmHg 55%
13:00 +3°C° 0 mm 3 mps 770 mmHg 54%
14:00 +4°C° 0 mm 3 mps 770 mmHg 54%
15:00 +4°C° 0 mm 3 mps 770 mmHg 53%
16:00 +4°C° 0 mm 2 mps 770 mmHg 58%
17:00 +3°C° 0 mm 2 mps 771 mmHg 63%
18:00 +1°C° 0 mm 2 mps 771 mmHg 68%
19:00 +1°C° 0 mm 2 mps 771 mmHg 70%
20:00 +1°C° 0 mm 2 mps 771 mmHg 72%
21:00 -1°C° 0 mm 2 mps 772 mmHg 75%
22:00 +1°C° 0 mm 1 mps 772 mmHg 76%
23:00 +1°C° 0 mm 1 mps 772 mmHg 77%

28 October, Wednesday

Time Temperature Precipitation Wind Pressure Humidity
00:00 0°C° 0 mm 1 mps 772 mmHg 78%
01:00 0°C° 0 mm 1 mps 772 mmHg 78%
02:00 -1°C° 0 mm 0 mps 772 mmHg 78%
03:00 -1°C° 0 mm 0 mps 772 mmHg 78%
04:00 -1°C° 0 mm 0 mps 772 mmHg 78%
05:00 -1°C° 0 mm 0 mps 773 mmHg 78%
06:00 -1°C° 0 mm 0 mps 773 mmHg 78%
07:00 0°C° 0 mm 0 mps 773 mmHg 72%
08:00 +1°C° 0 mm 0 mps 773 mmHg 67%
09:00 +3°C° 0 mm 1 mps 773 mmHg 61%
10:00 +4°C° 0 mm 1 mps 773 mmHg 57%
11:00 +5°C° 0 mm 1 mps 774 mmHg 53%
12:00 +6°C° 0 mm 1 mps 774 mmHg 49%
13:00 +6°C° 0 mm 1 mps 773 mmHg 49%
14:00 +6°C° 0 mm 1 mps 773 mmHg 49%
15:00 +7°C° 0 mm 1 mps 773 mmHg 50%
16:00 +6°C° 0 mm 1 mps 773 mmHg 54%
17:00 +4°C° 0 mm 1 mps 773 mmHg 58%
18:00 +3°C° 0 mm 1 mps 774 mmHg 62%
19:00 +3°C° 0 mm 1 mps 774 mmHg 63%
20:00 +2°C° 0 mm 2 mps 774 mmHg 65%
21:00 +2°C° 0 mm 2 mps 774 mmHg 66%
22:00 +1°C° 0 mm 2 mps 774 mmHg 67%
23:00 +1°C° 0 mm 2 mps 774 mmHg 68%

29 October, Thursday

Time Temperature Precipitation Wind Pressure Humidity
00:00 +1°C° 0 mm 2 mps 774 mmHg 69%
01:00 +1°C° 0 mm 2 mps 774 mmHg 70%
02:00 +1°C° 0 mm 2 mps 774 mmHg 71%
03:00 -1°C° 0 mm 2 mps 774 mmHg 72%
04:00 -1°C° 0 mm 2 mps 774 mmHg 73%
05:00 -1°C° 0 mm 2 mps 774 mmHg 73%
06:00 -1°C° 0 mm 2 mps 774 mmHg 74%
07:00 +1°C° 0 mm 2 mps 774 mmHg 70%
08:00 +2°C° 0 mm 2 mps 774 mmHg 66%
09:00 +2°C° 0 mm 3 mps 774 mmHg 62%
10:00 +4°C° 0 mm 3 mps 774 mmHg 58%
11:00 +5°C° 0 mm 3 mps 774 mmHg 54%
12:00 +7°C° 0 mm 3 mps 774 mmHg 50%
13:00 +7°C° 0 mm 3 mps 774 mmHg 51%
14:00 +7°C° 0 mm 3 mps 773 mmHg 51%
15:00 +7°C° 0 mm 2 mps 773 mmHg 52%
16:00 +5°C° 0 mm 3 mps 773 mmHg 56%
17:00 +4°C° 0 mm 3 mps 773 mmHg 60%
18:00 +3°C° 0 mm 3 mps 773 mmHg 64%
19:00 +2°C° 0 mm 3 mps 773 mmHg 65%
20:00 +2°C° 0 mm 3 mps 773 mmHg 65%
21:00 +2°C° 0 mm 3 mps 773 mmHg 66%
22:00 +2°C° 0 mm 3 mps 773 mmHg 66%
23:00 +1°C° 0 mm 3 mps 773 mmHg 66%
Show more